Weather History for KLAS - June, 2013

Change the Weather History Date:

Saturday, June 22, 2013

  Actual Average Record
Temperature  
Mean Temperature 88 °F 89 °F  
Max Temperature 100 °F 101 °F 115 °F (1954)
Min Temperature 75 °F 77 °F 56 °F (1944)
Degree Days  
Heating Degree Days 0 0  
Month to date heating degree days 0 0  
Since 1 June heating degree days 0 0  
Since 1 July heating degree days 1757 1950  
Cooling Degree Days 23 24  
Month to date cooling degree days 567 451  
Year to date cooling degree days 1257 1001  
Since 1 June cooling degree days 567 451  
Growing Degree Days 38 (Base 50)    
Moisture  
Dew Point 20 °F    
Average Humidity 10    
Maximum Humidity 14    
Minimum Humidity 6    
Precipitation  
Precipitation 0.00 in 0.00 in 0.07 in (2005)
Month to date precipitation 0.00 0.05  
Year to date precipitation 0.61 2.06  
Snow  
Snow 0.00 in 0.00 in 0.00 in ()
Month to date snowfall 0.0 0.0  
Since 1 June snowfall 0.0 0.0  
Since 1 July snowfall T 0.3  
Snow Depth 0.00 in    
Sea Level Pressure  
Sea Level Pressure 29.65 in    
Wind  
Wind Speed 9 mph (South)    
Max Wind Speed 20 mph    
Max Gust Speed 25 mph    
Visibility 10 miles    
Events      
T = Trace of Precipitation, MM = Missing Value Source: NWS Daily Summary

Daily Weather History Graph

Daily Weather History Graph

Search for Another Location

Airport or City:

Trip Planner

Search our weather history database for the weather conditions in past years. The results will help you decide how hot, cold, wet, or windy it might be!

Date:

Astronomy

Jun. 22, 2013 Rise Set
Actual Time 5:24 AM PDT 8:01 PM PDT
Civil Twilight 4:54 AM PDT 8:31 PM PDT
Nautical Twilight 4:16 AM PDT 9:09 PM PDT
Astronomical Twilight 3:34 AM PDT 9:51 PM PDT
Moon 7:22 PM PDT (6/22) 4:39 AM PDT (6/22)
Length of Visible Light 15h 37m
Length of Day
14h 36m
Waxing Gibbous, 99% of the Moon is Illuminated
Jun 22
Waxing Gibbous
Jun 23
Full
Jun 29
Last Quarter
Jul 8
New
Jul 15
First Quarter

Hourly Weather History & Observations

Time (PDT) Temp. Dew Point Humidity Pressure Visibility Wind Dir Wind Speed Gust Speed Precip Events Conditions
12:56 AM 84.0 °F 17.1 °F 8% 29.63 in 10.0 mi South 17.3 mph 25.3 mph N/A   Clear
1:56 AM 81.0 °F 18.0 °F 10% 29.64 in 10.0 mi South 11.5 mph - N/A   Clear
2:56 AM 79.0 °F 19.9 °F 11% 29.63 in 10.0 mi South 13.8 mph - N/A   Clear
3:56 AM 78.1 °F 21.0 °F 12% 29.65 in 10.0 mi SSW 15.0 mph 19.6 mph N/A   Clear
4:56 AM 75.9 °F 19.9 °F 12% 29.66 in 10.0 mi SSW 8.1 mph - N/A   Clear
5:56 AM 75.0 °F 21.9 °F 14% 29.69 in 10.0 mi SSW 6.9 mph - N/A   Partly Cloudy
6:56 AM 77.0 °F 24.1 °F 14% 29.71 in 10.0 mi South 9.2 mph - N/A   Partly Cloudy
7:56 AM 82.9 °F 19.0 °F 9% 29.73 in 10.0 mi NNE 5.8 mph - N/A   Partly Cloudy
8:56 AM 86.0 °F 17.1 °F 8% 29.73 in 10.0 mi North 9.2 mph - N/A   Clear
9:56 AM 88.0 °F 18.0 °F 8% 29.73 in 10.0 mi NW 5.8 mph - N/A   Clear
10:56 AM 91.0 °F 18.0 °F 7% 29.74 in 10.0 mi Variable 3.5 mph - N/A   Clear
11:56 AM 91.9 °F 18.0 °F 7% 29.73 in 10.0 mi Calm Calm - N/A   Clear
12:56 PM 93.9 °F 18.0 °F 6% 29.70 in 10.0 mi Calm Calm - N/A   Clear
1:56 PM 95.0 °F 18.0 °F 6% 29.69 in 10.0 mi SSW 10.4 mph 17.3 mph N/A   Clear
2:56 PM 96.1 °F 18.0 °F 6% 29.65 in 10.0 mi SSW 9.2 mph - N/A   Clear
3:56 PM 98.1 °F 19.0 °F 6% 29.63 in 10.0 mi South 15.0 mph - N/A   Clear
4:56 PM 98.1 °F 19.9 °F 6% 29.61 in 10.0 mi Variable 5.8 mph - N/A   Clear
5:56 PM 99.0 °F 21.0 °F 6% 29.59 in 10.0 mi SSE 4.6 mph - N/A   Clear
6:56 PM 98.1 °F 21.9 °F 7% 29.58 in 10.0 mi SE 8.1 mph - N/A   Clear
7:56 PM 95.0 °F 24.1 °F 8% 29.58 in 10.0 mi SSE 8.1 mph - N/A   Clear
8:56 PM 93.9 °F 21.9 °F 7% 29.58 in 10.0 mi South 11.5 mph 18.4 mph N/A   Clear
9:56 PM 91.0 °F 19.0 °F 7% 29.60 in 10.0 mi SSW 13.8 mph - N/A   Clear
10:56 PM 89.1 °F 23.0 °F 9% 29.61 in 10.0 mi South 13.8 mph - N/A   Clear
11:56 PM 87.1 °F 21.0 °F 9% 29.60 in 10.0 mi SSW 10.4 mph - N/A   Clear